�������l�o���
Date,Time,MP-1(��Sv/h),MP-2(��Sv/h),MP-3(��Sv/h),MP-4(��Sv/h),MP-5(��Sv/h),MP-6(��Sv/h),MP-7(��Sv/h),MP-8(��Sv/h),����,����(m/s),���J
2023/05/03,00:00,0.561,0.824,0.497,1.033,0.731,0.323,0.581,0.543,�k��,6.2,��
2023/05/03,00:10,0.561,0.821,0.496,1.033,0.729,0.323,0.578,0.545,�k��,6.1,��
2023/05/03,00:20,0.561,0.823,0.498,1.033,0.728,0.323,0.578,0.544,�k��,6.0,��
2023/05/03,00:30,0.562,0.822,0.497,1.034,0.730,0.322,0.578,0.544,�k��,5.6,��
2023/05/03,00:40,0.562,0.822,0.497,1.033,0.727,0.323,0.579,0.544,�k��,5.2,��
2023/05/03,00:50,0.561,0.822,0.497,1.033,0.731,0.323,0.579,0.544,�k��,4.9,��
2023/05/03,01:00,0.561,0.823,0.495,1.032,0.728,0.322,0.577,0.544,�k��,5.7,��
2023/05/03,01:10,0.559,0.822,0.497,1.033,0.730,0.323,0.577,0.545,�k��,5.8,��
2023/05/03,01:20,0.561,0.824,0.497,1.033,0.728,0.323,0.577,0.544,�k��,6.0,��
2023/05/03,01:30,0.561,0.821,0.496,1.033,0.730,0.325,0.580,0.544,���k��,4.0,��
2023/05/03,01:40,0.559,0.822,0.497,1.033,0.732,0.323,0.579,0.545,���k��,2.9,��
2023/05/03,01:50,0.561,0.823,0.496,1.033,0.728,0.323,0.580,0.544,���k��,2.9,��
2023/05/03,02:00,0.561,0.823,0.495,1.033,0.729,0.322,0.577,0.545,���k��,2.8,��
2023/05/03,02:10,0.559,0.823,0.495,1.033,0.730,0.322,0.578,0.546,���k��,3.2,��
2023/05/03,02:20,0.560,0.821,0.494,1.033,0.730,0.322,0.579,0.545,���쐼,2.3,��
2023/05/03,02:30,0.561,0.822,0.495,1.031,0.731,0.323,0.578,0.543,�쐼,2.6,��
2023/05/03,02:40,0.560,0.824,0.496,1.034,0.729,0.324,0.579,0.545,��쐼,2.2,��
2023/05/03,02:50,0.559,0.824,0.496,1.033,0.728,0.324,0.578,0.545,��쐼,1.9,��
2023/05/03,03:00,0.561,0.823,0.494,1.032,0.730,0.322,0.579,0.546,�쐼,0.8,��
2023/05/03,03:10,0.561,0.822,0.494,1.031,0.731,0.322,0.579,0.543,�쐼,0.6,��
2023/05/03,03:20,0.560,0.823,0.496,1.033,0.729,0.323,0.576,0.544,�쐼,1.1,��
2023/05/03,03:30,0.562,0.821,0.496,1.032,0.727,0.322,0.578,0.545,��쐼,1.5,��
2023/05/03,03:40,0.560,0.820,0.495,1.033,0.729,0.323,0.579,0.544,�쐼,1.4,��
2023/05/03,03:50,0.560,0.821,0.495,1.032,0.730,0.324,0.579,0.544,��,1.7,��
2023/05/03,04:00,0.560,0.822,0.496,1.034,0.730,0.323,0.578,0.545,��,2.3,��
2023/05/03,04:10,0.559,0.820,0.494,1.034,0.730,0.323,0.579,0.544,���k��,1.9,��
2023/05/03,04:20,0.559,0.821,0.496,1.033,0.731,0.323,0.578,0.544,�k�k��,1.9,��
2023/05/03,04:30,0.562,0.820,0.496,1.033,0.731,0.324,0.578,0.544,�k�k��,1.2,��
2023/05/03,04:40,0.558,0.822,0.494,1.032,0.730,0.323,0.577,0.545,�k�k��,0.9,��
2023/05/03,04:50,0.558,0.821,0.494,1.034,0.728,0.322,0.578,0.543,-,CALM,��
2023/05/03,05:00,0.560,0.821,0.496,1.032,0.730,0.323,0.578,0.545,�쐼,0.9,��
2023/05/03,05:10,0.559,0.823,0.494,1.035,0.730,0.322,0.578,0.545,�쐼,0.9,��
2023/05/03,05:20,0.560,0.822,0.497,1.031,0.731,0.323,0.578,0.544,��,0.6,��
2023/05/03,05:30,0.561,0.821,0.496,1.033,0.730,0.322,0.579,0.544,�쓌,0.6,��
2023/05/03,05:40,0.559,0.823,0.497,1.033,0.729,0.323,0.578,0.545,-,CALM,��
2023/05/03,05:50,0.559,0.822,0.495,1.032,0.730,0.323,0.578,0.546,-,CALM,��
2023/05/03,06:00,0.561,0.823,0.494,1.031,0.730,0.323,0.578,0.546,�쐼,0.6,��
2023/05/03,06:10,0.560,0.821,0.497,1.033,0.728,0.322,0.579,0.544,�쐼,1.2,��
2023/05/03,06:20,0.561,0.824,0.495,1.032,0.728,0.325,0.578,0.545,�쐼,1.9,��
2023/05/03,06:30,0.560,0.822,0.495,1.032,0.727,0.323,0.577,0.545,��쐼,2.0,��
2023/05/03,06:40,0.561,0.823,0.496,1.031,0.728,0.324,0.580,0.545,��쐼,1.7,��
2023/05/03,06:50,0.560,0.823,0.496,1.033,0.730,0.324,0.580,0.545,��쓌,1.5,��
2023/05/03,07:00,0.563,0.823,0.496,1.033,0.730,0.323,0.579,0.544,��쓌,1.1,��
2023/05/03,07:10,0.563,0.820,0.497,1.035,0.729,0.322,0.581,0.545,��쓌,1.5,��
2023/05/03,07:20,0.562,0.822,0.498,1.032,0.728,0.322,0.581,0.546,��쓌,2.0,��
2023/05/03,07:30,0.564,0.822,0.496,1.034,0.730,0.322,0.581,0.545,�쓌,2.6,��
2023/05/03,07:40,0.562,0.822,0.498,1.033,0.730,0.322,0.580,0.545,��쓌,2.9,��
2023/05/03,07:50,0.562,0.821,0.497,1.035,0.730,0.323,0.580,0.546,��쓌,3.4,��
2023/05/03,08:00,0.562,0.820,0.497,1.032,0.731,0.323,0.582,0.547,��쓌,2.3,��
2023/05/03,08:10,0.562,0.822,0.497,1.034,0.729,0.323,0.579,0.546,��쓌,3.2,��
2023/05/03,08:20,0.563,0.821,0.497,1.035,0.731,0.324,0.580,0.545,��쓌,2.0,��
2023/05/03,08:30,0.562,0.823,0.497,1.032,0.731,0.323,0.580,0.545,��쓌,2.8,��
2023/05/03,08:40,0.563,0.824,0.497,1.034,0.730,0.322,0.578,0.544,�쓌,2.5,��
2023/05/03,08:50,0.560,0.823,0.498,1.035,0.731,0.322,0.579,0.542,��쓌,3.6,��
2023/05/03,09:00,0.562,0.826,0.496,1.033,0.729,0.324,0.578,0.542,��쓌,3.5,��
2023/05/03,09:10,0.561,0.824,0.498,1.035,0.730,0.323,0.578,0.543,���쓌,4.0,��
2023/05/03,09:20,0.562,0.823,0.496,1.034,0.729,0.323,0.578,0.543,���쓌,4.0,��
2023/05/03,09:30,0.563,0.825,0.499,1.036,0.732,0.323,0.578,0.543,��쓌,3.7,��
2023/05/03,09:40,0.561,0.823,0.496,1.035,0.732,0.324,0.577,0.544,��쓌,4.7,��
2023/05/03,09:50,0.562,0.825,0.496,1.036,0.730,0.323,0.577,0.544,��쓌,6.0,��
2023/05/03,10:00,0.562,0.825,0.496,1.037,0.730,0.323,0.577,0.544,��쓌,4.5,��
2023/05/03,10:10,0.562,0.824,0.497,1.035,0.730,0.323,0.578,0.544,�쓌,5.8,��
2023/05/03,10:20,0.561,0.824,0.496,1.037,0.730,0.325,0.577,0.544,��쓌,6.5,��
2023/05/03,10:30,0.562,0.824,0.496,1.035,0.732,0.323,0.579,0.544,��쓌,7.5,��
2023/05/03,10:40,0.562,0.823,0.495,1.036,0.730,0.325,0.578,0.545,��쓌,8.0,��
2023/05/03,10:50,0.562,0.825,0.498,1.035,0.730,0.324,0.579,0.546,��쓌,8.4,��
2023/05/03,11:00,0.563,0.824,0.497,1.035,0.731,0.324,0.579,0.544,��쓌,8.5,��
2023/05/03,11:10,0.564,0.825,0.495,1.037,0.732,0.324,0.580,0.545,��쓌,9.5,��
2023/05/03,11:20,0.565,0.826,0.498,1.036,0.731,0.323,0.579,0.545,��쓌,8.8,��
2023/05/03,11:30,0.564,0.824,0.497,1.037,0.731,0.324,0.580,0.546,��쓌,10.5,��
2023/05/03,11:40,0.563,0.825,0.497,1.033,0.732,0.325,0.579,0.543,��쓌,10.2,��
2023/05/03,11:50,0.562,0.825,0.498,1.034,0.733,0.324,0.580,0.544,��쓌,9.6,��
2023/05/03,12:00,0.564,0.824,0.498,1.033,0.734,0.324,0.581,0.544,��쓌,9.2,��
2023/05/03,12:10,0.563,0.825,0.498,1.036,0.731,0.325,0.580,0.543,��쓌,10.5,��
2023/05/03,12:20,0.564,0.827,0.498,1.033,0.733,0.326,0.579,0.545,��쓌,10.6,��
2023/05/03,12:30,0.566,0.826,0.498,1.033,0.735,0.325,0.580,0.545,��쓌,10.9,��
2023/05/03,12:40,0.565,0.826,0.498,1.034,0.734,0.325,0.577,0.544,��쓌,11.3,��
2023/05/03,12:50,0.564,0.826,0.497,1.035,0.733,0.324,0.579,0.544,��쓌,9.9,��
2023/05/03,13:00,0.564,0.826,0.498,1.036,0.733,0.325,0.580,0.545,��쓌,9.8,��
2023/05/03,13:10,0.567,0.827,0.497,1.036,0.733,0.325,0.579,0.545,��쓌,10.0,��
2023/05/03,13:20,0.565,0.827,0.497,1.037,0.734,0.325,0.579,0.544,��쓌,11.1,��
2023/05/03,13:30,0.564,0.827,0.498,1.036,0.735,0.324,0.578,0.544,��쓌,10.3,��
2023/05/03,13:40,0.562,0.827,0.498,1.037,0.735,0.324,0.579,0.544,��쓌,10.7,��
2023/05/03,13:50,0.563,0.828,0.497,1.036,0.735,0.325,0.578,0.544,��쓌,12.0,��
2023/05/03,14:00,0.565,0.828,0.497,1.038,0.734,0.325,0.578,0.546,��쓌,10.2,��
2023/05/03,14:10,0.565,0.826,0.497,1.035,0.733,0.324,0.579,0.545,��쓌,9.2,��
2023/05/03,14:20,0.565,0.826,0.498,1.037,0.733,0.325,0.578,0.544,��쓌,10.2,��
2023/05/03,14:30,0.565,0.827,0.497,1.035,0.732,0.326,0.579,0.545,��쓌,10.5,��
2023/05/03,14:40,0.565,0.827,0.497,1.036,0.734,0.325,0.580,0.543,��쓌,10.2,��
2023/05/03,14:50,0.565,0.827,0.498,1.036,0.734,0.325,0.578,0.544,��쓌,9.4,��
2023/05/03,15:00,0.564,0.826,0.497,1.037,0.733,0.324,0.577,0.544,��쓌,11.0,��
2023/05/03,15:10,0.566,0.826,0.497,1.039,0.735,0.324,0.579,0.545,��쓌,9.9,��
2023/05/03,15:20,0.563,0.826,0.499,1.037,0.733,0.324,0.579,0.546,��쓌,11.0,��
2023/05/03,15:30,0.563,0.826,0.496,1.037,0.733,0.326,0.579,0.545,��,9.2,��
2023/05/03,15:40,0.566,0.826,0.497,1.038,0.733,0.325,0.578,0.544,��,8.2,��
2023/05/03,15:50,0.563,0.826,0.497,1.037,0.734,0.325,0.578,0.546,��,7.6,��
2023/05/03,16:00,0.565,0.824,0.496,1.037,0.733,0.325,0.579,0.546,��,8.5,��
2023/05/03,16:10,0.564,0.828,0.498,1.037,0.733,0.325,0.580,0.544,��,7.7,��
2023/05/03,16:20,0.565,0.828,0.499,1.039,0.733,0.323,0.578,0.545,��,6.2,��
2023/05/03,16:30,0.564,0.827,0.498,1.039,0.733,0.324,0.578,0.546,��,4.7,��
2023/05/03,16:40,0.564,0.827,0.498,1.038,0.733,0.325,0.578,0.545,��,4.7,��
2023/05/03,16:50,0.565,0.828,0.498,1.039,0.734,0.325,0.579,0.546,��,5.1,��
2023/05/03,17:00,0.564,0.827,0.497,1.037,0.732,0.325,0.580,0.544,��,6.3,��
2023/05/03,17:10,0.564,0.827,0.498,1.037,0.735,0.324,0.579,0.544,��,5.9,��
2023/05/03,17:20,0.565,0.827,0.497,1.037,0.732,0.325,0.578,0.545,��,6.6,��
2023/05/03,17:30,0.565,0.827,0.499,1.037,0.732,0.325,0.578,0.545,��,5.8,��
2023/05/03,17:40,0.565,0.827,0.499,1.039,0.734,0.325,0.578,0.545,��,6.3,��
2023/05/03,17:50,0.566,0.829,0.499,1.039,0.732,0.325,0.578,0.548,��,6.1,��
2023/05/03,18:00,0.566,0.830,0.500,1.040,0.736,0.325,0.578,0.547,��,6.4,��
2023/05/03,18:10,0.565,0.829,0.500,1.040,0.735,0.325,0.579,0.546,��,5.7,��
2023/05/03,18:20,0.565,0.829,0.501,1.036,0.735,0.325,0.579,0.547,��,5.3,��
2023/05/03,18:30,0.566,0.831,0.501,1.040,0.736,0.325,0.580,0.548,��쐼,5.3,��
2023/05/03,18:40,0.565,0.830,0.500,1.038,0.736,0.326,0.581,0.546,��쐼,4.5,��
2023/05/03,18:50,0.567,0.829,0.499,1.039,0.737,0.326,0.582,0.548,��쐼,4.5,��
2023/05/03,19:00,0.567,0.830,0.502,1.038,0.737,0.325,0.580,0.548,��쐼,3.9,��
2023/05/03,19:10,0.566,0.830,0.498,1.038,0.737,0.327,0.580,0.546,��쐼,4.6,��
2023/05/03,19:20,0.568,0.827,0.500,1.039,0.736,0.327,0.580,0.548,��쐼,4.2,��
2023/05/03,19:30,0.567,0.828,0.500,1.037,0.738,0.327,0.582,0.545,��쐼,4.3,��
2023/05/03,19:40,0.567,0.830,0.499,1.039,0.737,0.326,0.581,0.548,�쐼,3.9,��
2023/05/03,19:50,0.568,0.830,0.500,1.038,0.736,0.328,0.581,0.548,��쐼,4.6,��
2023/05/03,20:00,0.566,0.831,0.502,1.039,0.739,0.326,0.582,0.547,�쐼,3.3,��
2023/05/03,20:10,0.566,0.829,0.501,1.038,0.737,0.327,0.581,0.547,�쐼,3.8,��
2023/05/03,20:20,0.566,0.829,0.500,1.039,0.739,0.326,0.580,0.547,��쐼,4.2,��
2023/05/03,20:30,0.567,0.829,0.501,1.038,0.737,0.327,0.581,0.547,��쐼,4.5,��
2023/05/03,20:40,0.568,0.829,0.499,1.040,0.736,0.328,0.581,0.546,�쐼,4.1,��
2023/05/03,20:50,0.568,0.831,0.500,1.038,0.737,0.327,0.583,0.547,�쐼,3.6,��
2023/05/03,21:00,0.568,0.828,0.498,1.038,0.739,0.326,0.581,0.546,���쐼,3.9,��
2023/05/03,21:10,0.566,0.831,0.499,1.040,0.735,0.327,0.582,0.545,��,3.8,��
2023/05/03,21:20,0.566,0.828,0.501,1.039,0.738,0.326,0.581,0.547,���k��,3.2,��
2023/05/03,21:30,0.566,0.829,0.500,1.039,0.737,0.327,0.581,0.546,���k��,2.5,��
2023/05/03,21:40,0.566,0.830,0.500,1.040,0.735,0.325,0.581,0.547,���k��,2.0,��
2023/05/03,21:50,0.567,0.830,0.500,1.037,0.738,0.327,0.581,0.548,��,2.3,��
2023/05/03,22:00,0.566,0.829,0.501,1.040,0.737,0.326,0.581,0.546,��,1.7,��
2023/05/03,22:10,0.567,0.830,0.500,1.039,0.737,0.326,0.582,0.546,���쐼,2.5,��
2023/05/03,22:20,0.566,0.829,0.500,1.039,0.737,0.327,0.582,0.546,�쐼,3.6,��
2023/05/03,22:30,0.568,0.829,0.500,1.038,0.738,0.326,0.581,0.547,�쐼,5.6,��
2023/05/03,22:40,0.567,0.830,0.500,1.037,0.736,0.326,0.580,0.545,���쐼,4.7,��
2023/05/03,22:50,0.567,0.829,0.501,1.038,0.737,0.326,0.581,0.545,���쐼,3.7,��
2023/05/03,23:00,0.566,0.829,0.499,1.038,0.737,0.327,0.582,0.545,�쐼,3.6,��
2023/05/03,23:10,0.568,0.828,0.498,1.037,0.736,0.326,0.582,0.546,�쐼,4.1,��
2023/05/03,23:20,0.567,0.828,0.500,1.039,0.734,0.326,0.582,0.546,���쐼,2.9,��
2023/05/03,23:30,0.567,0.829,0.500,1.039,0.735,0.326,0.581,0.545,��,2.9,��
2023/05/03,23:40,0.566,0.828,0.500,1.037,0.735,0.326,0.581,0.545,���쐼,0.9,��
2023/05/03,23:50,0.568,0.828,0.497,1.038,0.737,0.327,0.581,0.546,-,CALM,��
